When you browse on this site, cookies collect data to enhance your experience and personalize the content and advertising you see.
Visit our Privacy Policy to learn more. By continuing to use the site, you agree to this use of cookies and data.
  • In Switzerland
  • List of Countries
  • For 7 days
  • Water Temperature
  • Weather Map
  • Weather Widgets
  • user-avatar
    Login

    Hourly Weather Otrada

    Today, 23 August, Friday

    Time Temperature Precipitation Wind Pressure Humidity
    00:00 +12°C° 0 mm 1 mps 751 mmHg 86%
    01:00 +12°C° 0 mm 1 mps 751 mmHg 87%
    02:00 +12°C° 0 mm 1 mps 751 mmHg 89%
    03:00 +11°C° 0 mm 1 mps 751 mmHg 89%
    04:00 +10°C° 0 mm 0 mps 751 mmHg 90%
    05:00 +10°C° 0 mm 0 mps 751 mmHg 91%
    06:00 +12°C° 0 mm 0 mps 751 mmHg 85%
    07:00 +14°C° 0 mm 0 mps 752 mmHg 79%
    08:00 +16°C° 0 mm 0 mps 752 mmHg 72%
    09:00 +17°C° 0 mm 0 mps 752 mmHg 67%
    10:00 +21°C° 0 mm 1 mps 752 mmHg 61%
    11:00 +22°C° 0 mm 1 mps 752 mmHg 56%
    12:00 +23°C° 0 mm 1 mps 751 mmHg 54%
    13:00 +23°C° 0 mm 1 mps 751 mmHg 52%
    14:00 +24°C° 0 mm 1 mps 751 mmHg 50%
    15:00 +23°C° 0 mm 1 mps 751 mmHg 55%
    16:00 +22°C° 0 mm 1 mps 751 mmHg 60%
    17:00 +22°C° 0 mm 1 mps 751 mmHg 65%
    18:00 +20°C° 0 mm 1 mps 750 mmHg 71%
    19:00 +18°C° 0 mm 1 mps 750 mmHg 78%
    20:00 +15°C° 0 mm 1 mps 750 mmHg 84%
    21:00 +14°C° 0 mm 1 mps 750 mmHg 85%
    22:00 +14°C° 0 mm 1 mps 750 mmHg 86%
    23:00 +13°C° 0 mm 1 mps 750 mmHg 87%

    Tomorrow, 24 August, Saturday

    Time Temperature Precipitation Wind Pressure Humidity
    00:00 +13°C° 0 mm 1 mps 750 mmHg 88%
    01:00 +13°C° 0 mm 1 mps 750 mmHg 89%
    02:00 +12°C° 0 mm 1 mps 750 mmHg 89%
    03:00 +12°C° 0 mm 1 mps 750 mmHg 90%
    04:00 +12°C° 0 mm 1 mps 749 mmHg 91%
    05:00 +12°C° 0 mm 1 mps 749 mmHg 92%
    06:00 +13°C° 0 mm 2 mps 749 mmHg 87%
    07:00 +15°C° 0 mm 2 mps 749 mmHg 81%
    08:00 +17°C° 0 mm 2 mps 749 mmHg 75%
    09:00 +18°C° 0 mm 3 mps 749 mmHg 71%
    10:00 +20°C° 0 mm 3 mps 749 mmHg 66%
    11:00 +21°C° 0 mm 3 mps 749 mmHg 62%
    12:00 +22°C° 0 mm 3 mps 749 mmHg 61%
    13:00 +22°C° 0 mm 4 mps 748 mmHg 60%
    14:00 +23°C° 0 mm 4 mps 748 mmHg 59%
    15:00 +22°C° 0 mm 3 mps 748 mmHg 63%
    16:00 +22°C° 0 mm 3 mps 748 mmHg 67%
    17:00 +21°C° 0 mm 2 mps 747 mmHg 71%
    18:00 +20°C° 0 mm 2 mps 747 mmHg 77%
    19:00 +18°C° 0 mm 2 mps 747 mmHg 83%
    20:00 +16°C° 0 mm 2 mps 747 mmHg 89%
    21:00 +16°C° 0 mm 2 mps 747 mmHg 91%
    22:00 +15°C° 0 mm 2 mps 747 mmHg 93%
    23:00 +15°C° 0 mm 2 mps 748 mmHg 95%

    Day after tomorrow, 25 August, Sunday

    Time Temperature Precipitation Wind Pressure Humidity
    00:00 +15°C° 0 mm 2 mps 748 mmHg 96%
    01:00 +14°C° 0 mm 2 mps 748 mmHg 96%
    02:00 +14°C° 0 mm 2 mps 748 mmHg 96%
    03:00 +14°C° 0 mm 2 mps 748 mmHg 96%
    04:00 +13°C° 0 mm 1 mps 748 mmHg 96%
    05:00 +13°C° 0 mm 1 mps 748 mmHg 96%
    06:00 +14°C° 0 mm 1 mps 749 mmHg 90%
    07:00 +16°C° 0 mm 1 mps 749 mmHg 84%
    08:00 +18°C° 0 mm 1 mps 749 mmHg 79%
    09:00 +20°C° 0 mm 1 mps 749 mmHg 72%
    10:00 +20°C° 0 mm 2 mps 749 mmHg 66%
    11:00 +23°C° 0 mm 2 mps 750 mmHg 59%
    12:00 +23°C° 0 mm 2 mps 750 mmHg 57%
    13:00 +23°C° 0 mm 1 mps 750 mmHg 55%
    14:00 +24°C° 0 mm 1 mps 750 mmHg 53%
    15:00 +23°C° 0 mm 1 mps 750 mmHg 58%
    16:00 +23°C° 0 mm 1 mps 749 mmHg 62%
    17:00 +22°C° 0 mm 1 mps 749 mmHg 66%
    18:00 +20°C° 0 mm 1 mps 749 mmHg 70%
    19:00 +18°C° 0 mm 1 mps 750 mmHg 75%
    20:00 +15°C° 0 mm 1 mps 750 mmHg 79%
    21:00 +14°C° 0 mm 1 mps 750 mmHg 81%
    22:00 +14°C° 0 mm 1 mps 750 mmHg 83%
    23:00 +13°C° 0 mm 1 mps 750 mmHg 84%

    26 August, Monday

    Time Temperature Precipitation Wind Pressure Humidity
    00:00 +13°C° 0 mm 1 mps 750 mmHg 86%
    01:00 +12°C° 0 mm 1 mps 750 mmHg 87%
    02:00 +12°C° 0 mm 1 mps 750 mmHg 88%
    03:00 +12°C° 0 mm 1 mps 750 mmHg 89%
    04:00 +12°C° 0 mm 1 mps 750 mmHg 90%
    05:00 +11°C° 0 mm 1 mps 750 mmHg 90%
    06:00 +13°C° 0 mm 1 mps 750 mmHg 84%
    07:00 +15°C° 0 mm 1 mps 750 mmHg 78%
    08:00 +18°C° 0 mm 1 mps 750 mmHg 71%
    09:00 +20°C° 0 mm 1 mps 750 mmHg 68%
    10:00 +21°C° 0 mm 1 mps 750 mmHg 65%
    11:00 +23°C° 0 mm 1 mps 750 mmHg 61%
    12:00 +23°C° 0.1 mm 1 mps 750 mmHg 61%
    13:00 +23°C° 0.1 mm 2 mps 750 mmHg 61%
    14:00 +23°C° 0.1 mm 2 mps 750 mmHg 61%
    15:00 +23°C° 0 mm 2 mps 749 mmHg 65%
    16:00 +23°C° 0 mm 1 mps 749 mmHg 69%
    17:00 +23°C° 0 mm 1 mps 748 mmHg 73%
    18:00 +21°C° 0 mm 1 mps 748 mmHg 77%
    19:00 +19°C° 0 mm 1 mps 748 mmHg 82%
    20:00 +18°C° 0 mm 1 mps 748 mmHg 86%
    21:00 +16°C° 0 mm 1 mps 748 mmHg 88%
    22:00 +16°C° 0 mm 1 mps 748 mmHg 90%
    23:00 +15°C° 0 mm 1 mps 748 mmHg 91%

    27 August, Tuesday

    Time Temperature Precipitation Wind Pressure Humidity
    00:00 +15°C° 0 mm 1 mps 748 mmHg 92%
    01:00 +15°C° 0 mm 1 mps 748 mmHg 92%
    02:00 +14°C° 0 mm 1 mps 748 mmHg 93%
    03:00 +14°C° 0 mm 2 mps 747 mmHg 93%
    04:00 +14°C° 0 mm 2 mps 747 mmHg 94%
    05:00 +14°C° 0 mm 2 mps 747 mmHg 94%
    06:00 +15°C° 0 mm 2 mps 747 mmHg 90%
    07:00 +17°C° 0 mm 2 mps 747 mmHg 86%
    08:00 +18°C° 0 mm 2 mps 747 mmHg 82%
    09:00 +19°C° 0 mm 2 mps 747 mmHg 77%
    10:00 +21°C° 0 mm 2 mps 747 mmHg 72%
    11:00 +24°C° 0 mm 3 mps 747 mmHg 66%
    12:00 +24°C° 0 mm 3 mps 747 mmHg 64%
    13:00 +25°C° 0 mm 3 mps 747 mmHg 62%
    14:00 +25°C° 0 mm 3 mps 747 mmHg 60%
    15:00 +25°C° 0 mm 3 mps 747 mmHg 64%
    16:00 +24°C° 0 mm 3 mps 746 mmHg 67%
    17:00 +24°C° 0 mm 2 mps 746 mmHg 71%
    18:00 +21°C° 0 mm 2 mps 746 mmHg 76%
    19:00 +19°C° 0 mm 2 mps 746 mmHg 81%
    20:00 +17°C° 0 mm 2 mps 747 mmHg 86%
    21:00 +17°C° 0 mm 2 mps 747 mmHg 88%
    22:00 +16°C° 0 mm 2 mps 747 mmHg 91%
    23:00 +15°C° 0 mm 1 mps 747 mmHg 94%

    28 August, Wednesday

    Time Temperature Precipitation Wind Pressure Humidity
    00:00 +15°C° 0 mm 1 mps 747 mmHg 93%
    01:00 +14°C° 0 mm 1 mps 747 mmHg 93%
    02:00 +14°C° 0 mm 1 mps 747 mmHg 92%
    03:00 +13°C° 0 mm 1 mps 747 mmHg 92%
    04:00 +13°C° 0 mm 1 mps 747 mmHg 91%
    05:00 +12°C° 0 mm 1 mps 748 mmHg 91%
    06:00 +14°C° 0 mm 1 mps 748 mmHg 84%
    07:00 +16°C° 0 mm 1 mps 748 mmHg 78%
    08:00 +18°C° 0 mm 1 mps 748 mmHg 72%
    09:00 +19°C° 0 mm 1 mps 748 mmHg 66%
    10:00 +20°C° 0 mm 2 mps 748 mmHg 60%
    11:00 +21°C° 0 mm 2 mps 748 mmHg 54%
    12:00 +23°C° 0 mm 2 mps 748 mmHg 52%
    13:00 +23°C° 0 mm 1 mps 748 mmHg 50%
    14:00 +23°C° 0 mm 1 mps 748 mmHg 48%
    15:00 +23°C° 0 mm 1 mps 748 mmHg 53%
    16:00 +23°C° 0 mm 1 mps 748 mmHg 58%
    17:00 +22°C° 0 mm 1 mps 748 mmHg 64%
    18:00 +20°C° 0 mm 1 mps 748 mmHg 70%
    19:00 +17°C° 0 mm 2 mps 748 mmHg 77%
    20:00 +15°C° 0 mm 2 mps 748 mmHg 84%
    21:00 +14°C° 0 mm 2 mps 748 mmHg 83%
    22:00 +14°C° 0 mm 2 mps 748 mmHg 83%
    23:00 +13°C° 0 mm 2 mps 749 mmHg 83%
    Show more